Home   Weather   Solingen   Past weeks

Flag for Germany Past Weather in Solingen, North Rhine-Westphalia, Germany — Yesterday and Last 2 Weeks

Now
59 °F

Clear.


Feels Like: 58 °F
Forecast: 52 / 61 °F
Wind: 8 mph from Southwest

Location: Duesseldorf

Current Time: Sep 30, 2016 at 1:55:55 AM

Latest Report: Sep 30, 2016 at 1:20 AM


Visibility: 10 mi

Pressure: 29.95 "Hg

Humidity: 88%

Dew Point: 55 °F

Location of SolingenLocation

Past Weather in Solingen — Graph

°F

Solingen Temperature Yesterday

Maximum temperature yesterday: 73 °F (at 2:20 PM)
Minimum temperature yesterday: 57 °F (at 11:20 PM)
Average temperature yesterday: 66 °F

High & Low Weather Summary for the Past Weeks

 TemperatureHumidityPressure
High88 °F (Sep 15, 1:50 PM)100% (Sep 16, 2:20 AM)30.33 "Hg (Sep 16, 2:20 AM)
Low45 °F (Sep 27, 7:20 AM)27% (Sep 15, 1:50 PM)29.77 "Hg (Sep 15, 4:20 PM)
Average63 °F71%30.10 "Hg
* Reported Sep 15 12:20 AM — Sep 30 12:20 AM, Solingen, Weather by CustomWeather, © 2016

Note: Actual official high and low records may vary slightly from our data, if they occured in-between our weather recording intervals... More about our weather records

Advertising

Solingen Weather History for the Previous 24 Hours

Scroll right to see more
 ConditionsComfort  
Time TempWeatherWind HumidityBarometerVisibility
12:20 AM
Fri, Sep 30
59 °FClear.9 mph88%29.95 "Hg10 mi
11:50 PM
Thu, Sep 29
59 °FPassing clouds.12 mph94%29.95 "HgN/A
11:20 PM57 °FPassing clouds.13 mph100%29.95 "HgN/A
10:50 PM61 °FPartly cloudy.16 mph100%29.98 "Hg2 mi
10:20 PM63 °FPassing clouds.14 mph88%29.95 "HgN/A
9:50 PM64 °FPassing clouds.16 mph78%29.95 "HgN/A
9:20 PM66 °FPassing clouds.18 mph68%29.95 "HgN/A
8:50 PM68 °FPassing clouds.22 mph64%29.95 "HgN/A
8:20 PM68 °FPassing clouds.18 mph64%29.92 "HgN/A
7:50 PM68 °FPartly cloudy.16 mph60%29.92 "HgN/A
7:20 PM68 °FPartly cloudy.17 mph60%29.95 "HgN/A
6:50 PM70 °FPartly sunny.18 mph57%29.92 "HgN/A
6:20 PM70 °FBroken clouds.18 mph57%29.92 "HgN/A
5:50 PM70 °FPartly sunny.16 mph57%29.95 "HgN/A
5:20 PM70 °FPartly sunny.18 mph57%29.95 "HgN/A
4:50 PM72 °FPartly sunny.20 mph53%29.95 "HgN/A
4:20 PM72 °FPartly sunny.22 mph53%29.95 "HgN/A
3:50 PM72 °FScattered clouds.18 mph57%29.95 "HgN/A
3:20 PM72 °FScattered clouds.21 mph57%29.95 "HgN/A
2:50 PM72 °FScattered clouds.18 mph53%29.98 "HgN/A
2:20 PM73 °FScattered clouds.21 mph53%29.98 "HgN/A
1:50 PM70 °FScattered clouds.21 mph60%29.98 "HgN/A
1:20 PM70 °FBroken clouds.20 mph60%30.01 "HgN/A
12:50 PM72 °FBroken clouds.23 mph61%30.01 "HgN/A
12:20 PM70 °FPartly sunny.21 mph64%30.01 "HgN/A
11:50 AM68 °FPartly sunny.22 mph69%30.04 "HgN/A
11:20 AM68 °FPartly sunny.22 mph69%30.04 "HgN/A
10:50 AM66 °FPartly sunny.20 mph73%30.04 "HgN/A
10:20 AM66 °FPartly sunny.16 mph73%30.07 "HgN/A
9:50 AM66 °FScattered clouds.14 mph73%30.07 "HgN/A
9:20 AM64 °FSunny.14 mph78%30.07 "Hg10 mi
8:50 AM63 °FSunny.14 mph83%30.07 "Hg10 mi
8:20 AM61 °FSunny.14 mph83%30.07 "Hg10 mi
7:50 AM61 °FSunny.14 mph83%30.09 "Hg10 mi
7:20 AM61 °FClear.12 mph83%30.09 "Hg10 mi
6:50 AM61 °FClear.12 mph83%30.09 "Hg10 mi
6:20 AM61 °FClear.12 mph83%30.12 "Hg10 mi
5:50 AM59 °FClear.10 mph88%30.12 "Hg10 mi
5:20 AM61 °FPassing clouds.12 mph83%30.12 "HgN/A
4:50 AM61 °FPassing clouds.12 mph83%30.15 "HgN/A
4:20 AM63 °FPassing clouds.12 mph77%30.15 "HgN/A
3:50 AM63 °FPassing clouds.9 mph77%30.15 "HgN/A
3:20 AM63 °FPassing clouds.10 mph77%30.18 "HgN/A
2:50 AM63 °FPassing clouds.8 mph77%30.18 "HgN/A
2:20 AM64 °FPassing clouds.10 mph73%30.18 "HgN/A
1:50 AM64 °FPassing clouds.8 mph73%30.18 "HgN/A
1:20 AM64 °FPassing clouds.9 mph73%30.18 "HgN/A
Weather by CustomWeather, © 2016

See weather overviewHow to use our weather pages